Year,Month,Day,Hour,Minute,Value (Times are PST for temperature in C)
2018,04,25,00,00,14.10
2018,04,25,00,01,14.10
2018,04,25,00,02,14.10
2018,04,25,00,03,14.00
2018,04,25,00,04,14.00
2018,04,25,00,05,14.00
2018,04,25,00,06,14.00
2018,04,25,00,07,13.90
2018,04,25,00,08,13.90
2018,04,25,00,09,13.90
2018,04,25,00,10,13.80
2018,04,25,00,11,13.80
2018,04,25,00,12,13.80
2018,04,25,00,13,13.80
2018,04,25,00,14,13.80
2018,04,25,00,15,13.80
2018,04,25,00,16,13.80
2018,04,25,00,17,13.80
2018,04,25,00,18,13.80
2018,04,25,00,19,13.80
2018,04,25,00,20,13.80
2018,04,25,00,21,13.80
2018,04,25,00,22,13.70
2018,04,25,00,23,13.70
2018,04,25,00,24,13.70
2018,04,25,00,25,13.70
2018,04,25,00,26,13.60
2018,04,25,00,27,13.60
2018,04,25,00,28,13.60
2018,04,25,00,29,13.60
2018,04,25,00,30,13.50
2018,04,25,00,31,13.50
2018,04,25,00,32,13.40
2018,04,25,00,33,13.40
2018,04,25,00,34,13.40
2018,04,25,00,35,13.30
2018,04,25,00,36,13.30
2018,04,25,00,37,13.30
2018,04,25,00,38,13.30
2018,04,25,00,39,13.30
2018,04,25,00,40,13.30
2018,04,25,00,41,13.20
2018,04,25,00,42,13.20
2018,04,25,00,43,13.20
2018,04,25,00,44,13.20
2018,04,25,00,45,13.10
2018,04,25,00,46,13.10
2018,04,25,00,47,13.10
2018,04,25,00,48,13.10
2018,04,25,00,49,13.00
2018,04,25,00,50,13.00
2018,04,25,00,51,13.00
2018,04,25,00,52,12.90
2018,04,25,00,53,12.90
2018,04,25,00,54,12.90
2018,04,25,00,55,12.90
2018,04,25,00,56,12.90
2018,04,25,00,57,12.90
2018,04,25,00,58,12.90
2018,04,25,00,59,12.90
2018,04,25,01,00,12.90
2018,04,25,01,01,12.90
2018,04,25,01,02,12.90
2018,04,25,01,03,12.90
2018,04,25,01,04,12.90
2018,04,25,01,05,12.90
2018,04,25,01,06,12.80
2018,04,25,01,07,12.80
2018,04,25,01,08,12.80
2018,04,25,01,09,12.80
2018,04,25,01,10,12.80
2018,04,25,01,11,12.80
2018,04,25,01,12,12.80
2018,04,25,01,13,12.80
2018,04,25,01,14,12.70
2018,04,25,01,15,12.70
2018,04,25,01,16,12.60
2018,04,25,01,17,12.60
2018,04,25,01,18,12.70
2018,04,25,01,19,12.70
2018,04,25,01,20,12.70
2018,04,25,01,21,12.70
2018,04,25,01,22,12.70
2018,04,25,01,23,12.60
2018,04,25,01,24,12.60
2018,04,25,01,25,12.60
2018,04,25,01,26,12.60
2018,04,25,01,27,12.60
2018,04,25,01,28,12.50
2018,04,25,01,29,12.50
2018,04,25,01,30,12.50
2018,04,25,01,31,12.40
2018,04,25,01,32,12.40
2018,04,25,01,33,12.40
2018,04,25,01,34,12.30
2018,04,25,01,35,12.30
2018,04,25,01,36,12.30
2018,04,25,01,37,12.30
2018,04,25,01,38,12.20
2018,04,25,01,39,12.20
2018,04,25,01,40,12.20
2018,04,25,01,41,12.20
2018,04,25,01,42,12.20
2018,04,25,01,43,12.20
2018,04,25,01,44,12.10
2018,04,25,01,45,12.10
2018,04,25,01,46,12.10
2018,04,25,01,47,12.10
2018,04,25,01,48,12.10
2018,04,25,01,49,12.10
2018,04,25,01,50,12.00
2018,04,25,01,51,12.00
2018,04,25,01,52,12.00
2018,04,25,01,53,12.00
2018,04,25,01,54,11.90
2018,04,25,01,55,11.90
2018,04,25,01,56,11.90
2018,04,25,01,57,11.90
2018,04,25,01,58,11.80
2018,04,25,01,59,11.70
2018,04,25,02,00,11.70
2018,04,25,02,01,11.60
2018,04,25,02,02,11.50
2018,04,25,02,03,11.50
2018,04,25,02,04,11.40
2018,04,25,02,05,11.40
2018,04,25,02,06,11.30
2018,04,25,02,07,11.30
2018,04,25,02,08,11.30
2018,04,25,02,09,11.20
2018,04,25,02,10,11.20
2018,04,25,02,11,11.10
2018,04,25,02,12,11.10
2018,04,25,02,13,11.00
2018,04,25,02,14,11.00
2018,04,25,02,15,11.00
2018,04,25,02,16,11.00
2018,04,25,02,17,10.90
2018,04,25,02,18,10.90
2018,04,25,02,19,10.90
2018,04,25,02,20,10.90
2018,04,25,02,21,10.90
2018,04,25,02,22,10.90
2018,04,25,02,23,10.80
2018,04,25,02,24,10.80
2018,04,25,02,25,10.80
2018,04,25,02,26,10.80
2018,04,25,02,27,10.80
2018,04,25,02,28,10.80
2018,04,25,02,29,10.80
2018,04,25,02,30,10.80
2018,04,25,02,31,10.80
2018,04,25,02,32,10.80
2018,04,25,02,33,10.80
2018,04,25,02,34,10.70
2018,04,25,02,35,10.70
2018,04,25,02,36,10.70
2018,04,25,02,37,10.70
2018,04,25,02,38,10.70
2018,04,25,02,39,10.70
2018,04,25,02,40,10.70
2018,04,25,02,41,10.60
2018,04,25,02,42,10.60
2018,04,25,02,43,10.60
2018,04,25,02,44,10.60
2018,04,25,02,45,10.60
2018,04,25,02,46,10.50
2018,04,25,02,47,10.50
2018,04,25,02,48,10.50
2018,04,25,02,49,10.50
2018,04,25,02,50,10.50
2018,04,25,02,51,10.50
2018,04,25,02,52,10.60
2018,04,25,02,53,10.60
2018,04,25,02,54,10.60
2018,04,25,02,55,10.60
2018,04,25,02,56,10.60
2018,04,25,02,57,10.50
2018,04,25,02,58,10.50
2018,04,25,02,59,10.50
2018,04,25,03,00,10.50
2018,04,25,03,01,10.50
2018,04,25,03,02,10.50
2018,04,25,03,03,10.50
2018,04,25,03,04,10.50
2018,04,25,03,05,10.50
2018,04,25,03,06,10.50
2018,04,25,03,07,10.50
2018,04,25,03,08,10.50
2018,04,25,03,09,10.50
2018,04,25,03,10,10.60
2018,04,25,03,11,10.60
2018,04,25,03,12,10.60
2018,04,25,03,13,10.60
2018,04,25,03,14,10.50
2018,04,25,03,15,10.60
2018,04,25,03,16,10.60
2018,04,25,03,17,10.60
2018,04,25,03,18,10.60
2018,04,25,03,19,10.60
2018,04,25,03,20,10.60
2018,04,25,03,21,10.60
2018,04,25,03,22,10.60
2018,04,25,03,23,10.60
2018,04,25,03,24,10.60
2018,04,25,03,25,10.60
2018,04,25,03,26,10.60
2018,04,25,03,27,10.60
2018,04,25,03,28,10.60
2018,04,25,03,29,10.60
2018,04,25,03,30,10.60
2018,04,25,03,31,10.60
2018,04,25,03,32,10.60
2018,04,25,03,33,10.60
2018,04,25,03,34,10.60
2018,04,25,03,35,10.60
2018,04,25,03,36,10.50
2018,04,25,03,37,10.50
2018,04,25,03,38,10.50
2018,04,25,03,39,10.40
2018,04,25,03,40,10.40
2018,04,25,03,41,10.40
2018,04,25,03,42,10.40
2018,04,25,03,43,10.30
2018,04,25,03,44,10.30
2018,04,25,03,45,10.20
2018,04,25,03,46,10.10
2018,04,25,03,47,10.00
2018,04,25,03,48,9.80
2018,04,25,03,49,9.70
2018,04,25,03,50,9.60
2018,04,25,03,51,9.50
2018,04,25,03,52,9.40
2018,04,25,03,53,9.30
2018,04,25,03,54,9.20
2018,04,25,03,55,9.10
2018,04,25,03,56,9.10
2018,04,25,03,57,9.00
2018,04,25,03,58,8.90
2018,04,25,03,59,8.90
2018,04,25,04,00,8.80
2018,04,25,04,01,8.80
2018,04,25,04,02,8.70
2018,04,25,04,03,8.60
2018,04,25,04,04,8.50
2018,04,25,04,05,8.30
2018,04,25,04,06,8.30
2018,04,25,04,07,8.10
2018,04,25,04,08,8.10
2018,04,25,04,09,8.00
2018,04,25,04,10,7.90
2018,04,25,04,11,7.80
2018,04,25,04,12,7.80
2018,04,25,04,13,7.80
2018,04,25,04,14,7.80
2018,04,25,04,15,7.70
2018,04,25,04,16,7.70
2018,04,25,04,17,7.70
2018,04,25,04,18,7.70
2018,04,25,04,19,7.70
2018,04,25,04,20,7.70
2018,04,25,04,21,7.60
2018,04,25,04,22,7.60
2018,04,25,04,23,7.60
2018,04,25,04,24,7.60
2018,04,25,04,25,7.60
2018,04,25,04,26,7.50
2018,04,25,04,27,7.50
2018,04,25,04,28,7.50
2018,04,25,04,29,7.40
2018,04,25,04,30,7.30
2018,04,25,04,31,7.30
2018,04,25,04,32,7.20
2018,04,25,04,33,7.10
2018,04,25,04,34,7.00
2018,04,25,04,35,6.90
2018,04,25,04,36,6.80
2018,04,25,04,37,6.70
2018,04,25,04,38,6.70
2018,04,25,04,39,6.60
2018,04,25,04,40,6.60
2018,04,25,04,41,6.50
2018,04,25,04,42,6.40
2018,04,25,04,43,6.40
2018,04,25,04,44,6.40
2018,04,25,04,45,6.40
2018,04,25,04,46,6.30
2018,04,25,04,47,6.30
2018,04,25,04,48,6.30
2018,04,25,04,49,6.20
2018,04,25,04,50,6.20
2018,04,25,04,51,6.10
2018,04,25,04,52,6.10
2018,04,25,04,53,6.10
2018,04,25,04,54,6.10
2018,04,25,04,55,6.10
2018,04,25,04,56,6.00
2018,04,25,04,57,6.00
2018,04,25,04,58,5.90
2018,04,25,04,59,5.90
2018,04,25,05,00,5.80
2018,04,25,05,01,5.70
2018,04,25,05,02,5.60
2018,04,25,05,03,5.60
2018,04,25,05,04,5.50
2018,04,25,05,05,5.50
2018,04,25,05,06,5.50
2018,04,25,05,07,5.40
2018,04,25,05,08,5.40
2018,04,25,05,09,5.40
2018,04,25,05,10,5.30
2018,04,25,05,11,5.30
2018,04,25,05,12,5.30
2018,04,25,05,13,5.30
2018,04,25,05,14,5.30
2018,04,25,05,15,5.30
2018,04,25,05,16,5.30
2018,04,25,05,17,5.20
2018,04,25,05,18,5.20
2018,04,25,05,19,5.20
2018,04,25,05,20,5.30
2018,04,25,05,21,5.30
2018,04,25,05,22,5.30
2018,04,25,05,23,5.30
2018,04,25,05,24,5.30
2018,04,25,05,25,5.30
2018,04,25,05,26,5.30
2018,04,25,05,27,5.30
2018,04,25,05,28,5.20
2018,04,25,05,29,5.20
2018,04,25,05,30,5.20
2018,04,25,05,31,5.20
2018,04,25,05,32,5.20
2018,04,25,05,33,5.20
2018,04,25,05,34,5.10
2018,04,25,05,35,5.10
2018,04,25,05,36,5.10
2018,04,25,05,37,5.00
2018,04,25,05,38,5.00
2018,04,25,05,39,5.00
2018,04,25,05,40,4.90
2018,04,25,05,41,4.90
2018,04,25,05,42,4.90
2018,04,25,05,43,4.90
2018,04,25,05,44,4.90
2018,04,25,05,45,4.90
2018,04,25,05,46,4.90
2018,04,25,05,47,4.80
2018,04,25,05,48,4.80
2018,04,25,05,49,4.80
2018,04,25,05,50,4.80
2018,04,25,05,51,4.80
2018,04,25,05,52,4.70
2018,04,25,05,53,4.70
2018,04,25,05,54,4.60
2018,04,25,05,55,4.60
2018,04,25,05,56,4.50
2018,04,25,05,57,4.50
2018,04,25,05,58,4.40
2018,04,25,05,59,4.40
2018,04,25,06,00,4.40
2018,04,25,06,01,4.40
2018,04,25,06,02,4.40
2018,04,25,06,03,4.40
2018,04,25,06,04,4.40
2018,04,25,06,05,4.40
2018,04,25,06,06,4.40
2018,04,25,06,07,4.40
2018,04,25,06,08,4.40
2018,04,25,06,09,4.40
2018,04,25,06,10,4.40
2018,04,25,06,11,4.40
2018,04,25,06,12,4.40
2018,04,25,06,13,4.40
2018,04,25,06,14,4.40
2018,04,25,06,15,4.30
2018,04,25,06,16,4.30
2018,04,25,06,17,4.30
2018,04,25,06,18,4.30
2018,04,25,06,19,4.20
2018,04,25,06,20,4.20
2018,04,25,06,21,4.20
2018,04,25,06,22,4.20
2018,04,25,06,23,4.20
2018,04,25,06,24,4.20
2018,04,25,06,25,4.20
2018,04,25,06,26,4.20
2018,04,25,06,27,4.30
2018,04,25,06,28,4.30
2018,04,25,06,29,4.30
2018,04,25,06,30,4.30
2018,04,25,06,31,4.30
2018,04,25,06,32,4.30
2018,04,25,06,33,4.30
2018,04,25,06,34,4.30
2018,04,25,06,35,4.30
2018,04,25,06,36,4.30
2018,04,25,06,37,4.30
2018,04,25,06,38,4.20
2018,04,25,06,39,4.20
2018,04,25,06,40,4.10
2018,04,25,06,41,4.10
2018,04,25,06,42,4.00
2018,04,25,06,43,4.00
2018,04,25,06,44,3.90
2018,04,25,06,45,3.90
2018,04,25,06,46,3.90
2018,04,25,06,47,3.90
2018,04,25,06,48,3.90
2018,04,25,06,49,3.80
2018,04,25,06,50,3.80
2018,04,25,06,51,3.80
2018,04,25,06,52,3.80
2018,04,25,06,53,3.80
2018,04,25,06,54,3.90
2018,04,25,06,55,3.90
2018,04,25,06,56,3.90
2018,04,25,06,57,3.90
2018,04,25,06,58,3.90
2018,04,25,06,59,3.90
2018,04,25,07,00,3.80
2018,04,25,07,01,3.90
2018,04,25,07,02,3.90
2018,04,25,07,03,3.90
2018,04,25,07,04,3.90
2018,04,25,07,05,4.00
2018,04,25,07,06,4.00
2018,04,25,07,07,4.10
2018,04,25,07,08,4.10
2018,04,25,07,09,4.20
2018,04,25,07,10,4.30
2018,04,25,07,11,4.30
2018,04,25,07,12,4.40
2018,04,25,07,13,4.50
2018,04,25,07,14,4.60
2018,04,25,07,15,4.70
2018,04,25,07,16,4.80
2018,04,25,07,17,4.80
2018,04,25,07,18,4.90
2018,04,25,07,19,4.90
2018,04,25,07,20,4.90
2018,04,25,07,21,4.80
2018,04,25,07,22,4.80
2018,04,25,07,23,4.70
2018,04,25,07,24,4.60
2018,04,25,07,25,4.50
2018,04,25,07,26,4.40
2018,04,25,07,27,4.40
2018,04,25,07,28,4.30
2018,04,25,07,29,4.30
2018,04,25,07,30,4.30
2018,04,25,07,31,4.30
2018,04,25,07,32,4.30
2018,04,25,07,33,4.40
2018,04,25,07,34,4.40
2018,04,25,07,35,4.50
2018,04,25,07,36,4.50
2018,04,25,07,37,4.60
2018,04,25,07,38,4.60
2018,04,25,07,39,4.60
2018,04,25,07,40,4.70
2018,04,25,07,41,4.70
2018,04,25,07,42,4.80
2018,04,25,07,43,4.80
2018,04,25,07,44,4.90
2018,04,25,07,45,5.00
2018,04,25,07,46,5.10
2018,04,25,07,47,5.10
2018,04,25,07,48,5.20
2018,04,25,07,49,5.20
2018,04,25,07,50,5.30
2018,04,25,07,51,5.30
2018,04,25,07,52,5.30
2018,04,25,07,53,5.40
2018,04,25,07,54,5.40
2018,04,25,07,55,5.50
2018,04,25,07,56,5.60
2018,04,25,07,57,5.60
2018,04,25,07,58,5.70
2018,04,25,07,59,5.80
2018,04,25,08,00,5.80
2018,04,25,08,01,5.90
2018,04,25,08,02,5.90
2018,04,25,08,03,6.00
2018,04,25,08,04,6.00
2018,04,25,08,05,6.10
2018,04,25,08,06,6.20
2018,04,25,08,07,6.30
2018,04,25,08,08,6.40
2018,04,25,08,09,6.50
2018,04,25,08,10,6.60
2018,04,25,08,11,6.70
2018,04,25,08,12,6.80
2018,04,25,08,13,6.90
2018,04,25,08,14,7.00
2018,04,25,08,15,7.10
2018,04,25,08,16,7.20
2018,04,25,08,17,7.30
2018,04,25,08,18,7.40
2018,04,25,08,19,7.50
2018,04,25,08,20,7.60
2018,04,25,08,21,7.70
2018,04,25,08,22,7.70
2018,04,25,08,23,7.80
2018,04,25,08,24,7.90
2018,04,25,08,25,8.00
2018,04,25,08,26,8.10
2018,04,25,08,27,8.20
2018,04,25,08,28,8.30
2018,04,25,08,29,8.40
2018,04,25,08,30,8.50
2018,04,25,08,31,8.60
2018,04,25,08,32,8.70
2018,04,25,08,33,8.90
2018,04,25,08,34,9.00
2018,04,25,08,35,9.10
2018,04,25,08,36,9.20
2018,04,25,08,37,9.30
2018,04,25,08,38,9.50
2018,04,25,08,39,9.60
2018,04,25,08,40,9.70
2018,04,25,08,41,9.70
2018,04,25,08,42,9.80
2018,04,25,08,43,10.00
2018,04,25,08,44,10.10
2018,04,25,08,45,10.20
2018,04,25,08,46,10.30
2018,04,25,08,47,10.40
2018,04,25,08,48,10.50
2018,04,25,08,49,10.60
2018,04,25,08,50,10.70
2018,04,25,08,51,10.70
2018,04,25,08,52,10.80
2018,04,25,08,53,10.80
2018,04,25,08,54,10.90
2018,04,25,08,55,11.00
2018,04,25,08,56,11.00
2018,04,25,08,57,11.10
2018,04,25,08,58,11.10
2018,04,25,08,59,11.20
2018,04,25,09,00,11.30
2018,04,25,09,01,11.40
2018,04,25,09,02,11.50
2018,04,25,09,03,11.50
2018,04,25,09,04,11.60
2018,04,25,09,05,11.70
2018,04,25,09,06,11.80
2018,04,25,09,07,11.90
2018,04,25,09,08,11.90
2018,04,25,09,09,12.00
2018,04,25,09,10,12.10
2018,04,25,09,11,12.10
2018,04,25,09,12,12.20
2018,04,25,09,13,12.30
2018,04,25,09,14,12.30
2018,04,25,09,15,12.40
2018,04,25,09,16,12.40
2018,04,25,09,17,12.50
2018,04,25,09,18,12.50
2018,04,25,09,19,12.60
2018,04,25,09,20,12.60
2018,04,25,09,21,12.60
2018,04,25,09,22,12.70
2018,04,25,09,23,12.70
2018,04,25,09,24,12.80
2018,04,25,09,25,12.80
2018,04,25,09,26,12.80
2018,04,25,09,27,12.90
2018,04,25,09,28,12.90
2018,04,25,09,29,12.90
2018,04,25,09,30,12.90
2018,04,25,09,31,12.90
2018,04,25,09,32,13.00
2018,04,25,09,33,13.00
2018,04,25,09,34,13.10
2018,04,25,09,35,13.10
2018,04,25,09,36,13.20
2018,04,25,09,37,13.20
2018,04,25,09,38,13.30
2018,04,25,09,39,13.30
2018,04,25,09,40,13.30
2018,04,25,09,41,13.40
2018,04,25,09,42,13.40
2018,04,25,09,43,13.50
2018,04,25,09,44,13.50
2018,04,25,09,45,13.60
2018,04,25,09,46,13.60
2018,04,25,09,47,13.60
2018,04,25,09,48,13.60
2018,04,25,09,49,13.60
2018,04,25,09,50,13.70
2018,04,25,09,51,13.70
2018,04,25,09,52,13.80
2018,04,25,09,53,13.80
2018,04,25,09,54,13.90
2018,04,25,09,55,13.90
2018,04,25,09,56,14.00
2018,04,25,09,57,14.00
2018,04,25,09,58,14.10
2018,04,25,09,59,14.20
2018,04,25,10,00,14.20
2018,04,25,10,01,14.30
2018,04,25,10,02,14.40
2018,04,25,10,03,14.40
2018,04,25,10,04,14.40
2018,04,25,10,05,14.50
2018,04,25,10,06,14.60
2018,04,25,10,07,14.60
2018,04,25,10,08,14.70
2018,04,25,10,09,14.70
2018,04,25,10,10,14.70
2018,04,25,10,11,14.70
2018,04,25,10,12,14.70
2018,04,25,10,13,14.70
2018,04,25,10,14,14.70
2018,04,25,10,15,14.70
2018,04,25,10,16,14.80
2018,04,25,10,17,14.80
2018,04,25,10,18,14.90
2018,04,25,10,19,15.00
2018,04,25,10,20,14.90
2018,04,25,10,21,14.90
2018,04,25,10,22,14.90
2018,04,25,10,23,14.90
2018,04,25,10,24,14.90
2018,04,25,10,25,14.90
2018,04,25,10,26,14.90
2018,04,25,10,27,14.90
2018,04,25,10,28,14.90
2018,04,25,10,29,15.00
2018,04,25,10,30,15.00
2018,04,25,10,31,15.10
2018,04,25,10,32,15.20
2018,04,25,10,33,15.30
2018,04,25,10,34,15.30
2018,04,25,10,35,15.30
2018,04,25,10,36,15.30
2018,04,25,10,37,15.30
2018,04,25,10,38,15.30
2018,04,25,10,39,15.30
2018,04,25,10,40,15.30
2018,04,25,10,41,15.40
2018,04,25,10,42,15.50
2018,04,25,10,43,15.50
2018,04,25,10,44,15.50
2018,04,25,10,45,15.50
2018,04,25,10,46,15.60
2018,04,25,10,47,15.60
2018,04,25,10,48,15.60
2018,04,25,10,49,15.60
2018,04,25,10,50,15.70
2018,04,25,10,51,15.80
2018,04,25,10,52,15.80
2018,04,25,10,53,15.80
2018,04,25,10,54,15.80
2018,04,25,10,55,15.80
2018,04,25,10,56,15.80
2018,04,25,10,57,15.80
2018,04,25,10,58,15.70
2018,04,25,10,59,15.70
2018,04,25,11,00,15.70
2018,04,25,11,01,15.80
2018,04,25,11,02,15.80
2018,04,25,11,03,15.80
2018,04,25,11,04,15.90
2018,04,25,11,05,16.00
2018,04,25,11,06,16.00
2018,04,25,11,07,16.00
2018,04,25,11,08,16.00
2018,04,25,11,09,16.00
2018,04,25,11,10,16.10
2018,04,25,11,11,16.10
2018,04,25,11,12,16.20
2018,04,25,11,13,16.30
2018,04,25,11,14,16.40
2018,04,25,11,15,16.40
2018,04,25,11,16,16.50
2018,04,25,11,17,16.50
2018,04,25,11,18,16.40
2018,04,25,11,19,16.40
2018,04,25,11,20,16.40
2018,04,25,11,21,16.40
2018,04,25,11,22,16.50
2018,04,25,11,23,16.60
2018,04,25,11,24,16.60
2018,04,25,11,25,16.60
2018,04,25,11,26,16.70
2018,04,25,11,27,16.70
2018,04,25,11,28,16.80
2018,04,25,11,29,16.90
2018,04,25,11,30,16.90
2018,04,25,11,31,17.00
2018,04,25,11,32,17.10
2018,04,25,11,33,17.10
2018,04,25,11,34,17.10
2018,04,25,11,35,17.10
2018,04,25,11,36,17.10
2018,04,25,11,37,17.20
2018,04,25,11,38,17.30
2018,04,25,11,39,17.30
2018,04,25,11,40,17.40
2018,04,25,11,41,17.40
2018,04,25,11,42,17.30
2018,04,25,11,43,17.30
2018,04,25,11,44,17.30
2018,04,25,11,45,17.30
2018,04,25,11,46,17.40
2018,04,25,11,47,17.40
2018,04,25,11,48,17.40
2018,04,25,11,49,17.40
2018,04,25,11,50,17.50
2018,04,25,11,51,17.50
2018,04,25,11,52,17.50
2018,04,25,11,53,17.50
2018,04,25,11,54,17.50
2018,04,25,11,55,17.50
2018,04,25,11,56,17.50
2018,04,25,11,57,17.60
2018,04,25,11,58,17.60
2018,04,25,11,59,17.60
2018,04,25,12,00,17.70
2018,04,25,12,01,17.80
2018,04,25,12,02,17.90
2018,04,25,12,03,17.90
2018,04,25,12,04,17.90
2018,04,25,12,05,17.90
2018,04,25,12,06,17.90
2018,04,25,12,07,17.90
2018,04,25,12,08,17.90
2018,04,25,12,09,17.90
2018,04,25,12,10,17.90
2018,04,25,12,11,17.90
2018,04,25,12,12,17.80
2018,04,25,12,13,17.80
2018,04,25,12,14,17.80
2018,04,25,12,15,17.90
2018,04,25,12,16,17.90
2018,04,25,12,17,18.00
2018,04,25,12,18,18.10
2018,04,25,12,19,18.20
2018,04,25,12,20,18.30
2018,04,25,12,21,18.40
2018,04,25,12,22,18.40
2018,04,25,12,23,18.40
2018,04,25,12,24,18.40
2018,04,25,12,25,18.40
2018,04,25,12,26,18.40
2018,04,25,12,27,18.40
2018,04,25,12,28,18.40
2018,04,25,12,29,18.40
2018,04,25,12,30,18.40
2018,04,25,12,31,18.40
2018,04,25,12,32,18.40
2018,04,25,12,33,18.40
2018,04,25,12,34,18.40
2018,04,25,12,35,18.40
2018,04,25,12,36,18.30
2018,04,25,12,37,18.30
2018,04,25,12,38,18.40
2018,04,25,12,39,18.30
2018,04,25,12,40,18.30
2018,04,25,12,41,18.30
2018,04,25,12,42,18.30
2018,04,25,12,43,18.40
2018,04,25,12,44,18.40
2018,04,25,12,45,18.40
2018,04,25,12,46,18.30
2018,04,25,12,47,18.40
2018,04,25,12,48,18.40
2018,04,25,12,49,18.50
2018,04,25,12,50,18.50
2018,04,25,12,51,18.60
2018,04,25,12,52,18.60
2018,04,25,12,53,18.70
2018,04,25,12,54,18.70
2018,04,25,12,55,18.70
2018,04,25,12,56,18.70
2018,04,25,12,57,18.70
2018,04,25,12,58,18.70
2018,04,25,12,59,18.70
2018,04,25,13,00,18.60
2018,04,25,13,01,18.60
2018,04,25,13,02,18.60
2018,04,25,13,03,18.70
2018,04,25,13,04,18.70
2018,04,25,13,05,18.70
2018,04,25,13,06,18.70
2018,04,25,13,07,18.80
2018,04,25,13,08,18.80
2018,04,25,13,09,18.80
2018,04,25,13,10,18.90
2018,04,25,13,11,19.00
2018,04,25,13,12,19.10
2018,04,25,13,13,19.20
2018,04,25,13,14,19.20
2018,04,25,13,15,19.30
2018,04,25,13,16,19.30
2018,04,25,13,17,19.30
2018,04,25,13,18,19.30
2018,04,25,13,19,19.30
2018,04,25,13,20,19.30
2018,04,25,13,21,19.30
2018,04,25,13,22,19.30
2018,04,25,13,23,19.30
2018,04,25,13,24,19.30
2018,04,25,13,25,19.30
2018,04,25,13,26,19.30
2018,04,25,13,27,19.40
2018,04,25,13,28,19.40
2018,04,25,13,29,19.40
2018,04,25,13,30,19.40
2018,04,25,13,31,19.40
2018,04,25,13,32,19.40
2018,04,25,13,33,19.40
2018,04,25,13,34,19.40
2018,04,25,13,35,19.40
2018,04,25,13,36,19.50
2018,04,25,13,37,19.50
2018,04,25,13,38,19.70
2018,04,25,13,39,19.80
2018,04,25,13,40,19.90
2018,04,25,13,41,19.90
2018,04,25,13,42,19.90
2018,04,25,13,43,20.00
2018,04,25,13,44,20.00
2018,04,25,13,45,20.00
2018,04,25,13,46,20.00
2018,04,25,13,47,20.00
2018,04,25,13,48,20.00
2018,04,25,13,49,20.00
2018,04,25,13,50,20.10
2018,04,25,13,51,20.10
2018,04,25,13,52,20.20
2018,04,25,13,53,20.30
2018,04,25,13,54,20.40
2018,04,25,13,55,20.50
2018,04,25,13,56,20.70
2018,04,25,13,57,20.80
2018,04,25,13,58,20.80
2018,04,25,13,59,20.80
2018,04,25,14,00,20.80
2018,04,25,14,01,20.90
2018,04,25,14,02,20.90
2018,04,25,14,03,20.90
2018,04,25,14,04,21.00
2018,04,25,14,05,21.00
2018,04,25,14,06,21.00
2018,04,25,14,07,20.90
2018,04,25,14,08,20.90
2018,04,25,14,09,20.90
2018,04,25,14,10,20.80
2018,04,25,14,11,20.80
2018,04,25,14,12,20.80
2018,04,25,14,13,20.80
2018,04,25,14,14,20.80
2018,04,25,14,15,20.80
2018,04,25,14,16,20.80
2018,04,25,14,17,20.90
2018,04,25,14,18,20.90
2018,04,25,14,19,20.90
2018,04,25,14,20,20.90
2018,04,25,14,21,20.90
2018,04,25,14,22,21.00
2018,04,25,14,23,21.00
2018,04,25,14,24,21.10
2018,04,25,14,25,21.10
2018,04,25,14,26,21.10
2018,04,25,14,27,21.20
2018,04,25,14,28,21.20
2018,04,25,14,29,21.20
2018,04,25,14,30,21.30
2018,04,25,14,31,21.30
2018,04,25,14,32,21.40
2018,04,25,14,33,21.40
2018,04,25,14,34,21.40
2018,04,25,14,35,21.30
2018,04,25,14,36,21.20
2018,04,25,14,37,21.00
2018,04,25,14,38,20.90
2018,04,25,14,39,20.80
2018,04,25,14,40,20.80
2018,04,25,14,41,20.80
2018,04,25,14,42,20.80
2018,04,25,14,43,20.90
2018,04,25,14,44,20.90
2018,04,25,14,45,20.90
2018,04,25,14,46,21.00
2018,04,25,14,47,21.00
2018,04,25,14,48,21.10
2018,04,25,14,49,21.20
2018,04,25,14,50,21.30
2018,04,25,14,51,21.30
2018,04,25,14,52,21.30
2018,04,25,14,53,21.40
2018,04,25,14,54,21.40
2018,04,25,14,55,21.50
2018,04,25,14,56,21.60
2018,04,25,14,57,21.60
2018,04,25,14,58,21.60
2018,04,25,14,59,21.50
2018,04,25,15,00,21.40
2018,04,25,15,01,21.30
2018,04,25,15,02,21.30
2018,04,25,15,03,21.30
2018,04,25,15,04,21.30
2018,04,25,15,05,21.30
2018,04,25,15,06,21.30
2018,04,25,15,07,21.30
2018,04,25,15,08,21.30
2018,04,25,15,09,21.40
2018,04,25,15,10,21.40
2018,04,25,15,11,21.40
2018,04,25,15,12,21.40
2018,04,25,15,13,21.40
2018,04,25,15,14,21.30
2018,04,25,15,15,21.20
2018,04,25,15,16,21.20
2018,04,25,15,17,21.20
2018,04,25,15,18,21.20
2018,04,25,15,19,21.30
2018,04,25,15,20,21.40
2018,04,25,15,21,21.50
2018,04,25,15,22,21.60
2018,04,25,15,23,21.70
2018,04,25,15,24,21.70
2018,04,25,15,25,21.70
2018,04,25,15,26,21.60
2018,04,25,15,27,21.70
2018,04,25,15,28,21.70
2018,04,25,15,29,21.70
2018,04,25,15,30,21.80
2018,04,25,15,31,21.80
2018,04,25,15,32,21.80
2018,04,25,15,33,21.90
2018,04,25,15,34,22.00
2018,04,25,15,35,22.00
2018,04,25,15,36,22.00
2018,04,25,15,37,22.00
2018,04,25,15,38,22.00
2018,04,25,15,39,22.10
2018,04,25,15,40,22.10
2018,04,25,15,41,22.20
2018,04,25,15,42,22.30
2018,04,25,15,43,22.30
2018,04,25,15,44,22.40
2018,04,25,15,45,22.40
2018,04,25,15,46,22.50
2018,04,25,15,47,22.50
2018,04,25,15,48,22.60
2018,04,25,15,49,22.70
2018,04,25,15,50,22.70
2018,04,25,15,51,22.60
2018,04,25,15,52,22.50
2018,04,25,15,53,22.50
2018,04,25,15,54,22.40
2018,04,25,15,55,22.40
2018,04,25,15,56,22.40
2018,04,25,15,57,22.40
2018,04,25,15,58,22.50
2018,04,25,15,59,22.50
2018,04,25,16,00,22.50
2018,04,25,16,01,22.40
2018,04,25,16,02,22.40
2018,04,25,16,03,22.40
2018,04,25,16,04,22.40
2018,04,25,16,05,22.30
2018,04,25,16,06,22.30
2018,04,25,16,07,22.30
2018,04,25,16,08,22.30
2018,04,25,16,09,22.20
2018,04,25,16,10,22.10
2018,04,25,16,11,22.10
2018,04,25,16,12,22.10
2018,04,25,16,13,22.10
2018,04,25,16,14,22.20
2018,04,25,16,15,22.20
2018,04,25,16,16,22.30
2018,04,25,16,17,22.40
2018,04,25,16,18,22.50
2018,04,25,16,19,22.50
2018,04,25,16,20,22.60
2018,04,25,16,21,22.60
2018,04,25,16,22,22.60
2018,04,25,16,23,22.50
2018,04,25,16,24,22.50
2018,04,25,16,25,22.60
2018,04,25,16,26,22.70
2018,04,25,16,27,22.70
2018,04,25,16,28,22.80
2018,04,25,16,29,22.90
2018,04,25,16,30,22.90
2018,04,25,16,31,22.90
2018,04,25,16,32,22.80
2018,04,25,16,33,22.80
2018,04,25,16,34,22.70
2018,04,25,16,35,22.70
2018,04,25,16,36,22.70
2018,04,25,16,37,22.80
2018,04,25,16,38,22.90
2018,04,25,16,39,23.00
2018,04,25,16,40,23.10
2018,04,25,16,41,23.20
2018,04,25,16,42,23.20
2018,04,25,16,43,23.30
2018,04,25,16,44,23.30
2018,04,25,16,45,23.30
2018,04,25,16,46,23.30
2018,04,25,16,47,23.30
2018,04,25,16,48,23.30
2018,04,25,16,49,23.30
2018,04,25,16,50,23.20
2018,04,25,16,51,23.20
2018,04,25,16,52,23.10
2018,04,25,16,53,23.10
2018,04,25,16,54,23.20
2018,04,25,16,55,23.20
2018,04,25,16,56,23.30
2018,04,25,16,57,23.30
2018,04,25,16,58,23.30
2018,04,25,16,59,23.40
2018,04,25,17,00,23.40
2018,04,25,17,01,23.40
2018,04,25,17,02,23.40
2018,04,25,17,03,23.40
2018,04,25,17,04,23.40
2018,04,25,17,05,23.40
2018,04,25,17,06,23.50
2018,04,25,17,07,23.50
2018,04,25,17,08,23.50
2018,04,25,17,09,23.60
2018,04,25,17,10,23.60
2018,04,25,17,11,23.60
2018,04,25,17,12,23.60
2018,04,25,17,13,23.70
2018,04,25,17,14,23.70
2018,04,25,17,15,23.70
2018,04,25,17,16,23.70
2018,04,25,17,17,23.70
2018,04,25,17,18,23.70
2018,04,25,17,19,23.70
2018,04,25,17,20,23.70
2018,04,25,17,21,23.60
2018,04,25,17,22,23.50
2018,04,25,17,23,23.50
2018,04,25,17,24,23.40
2018,04,25,17,25,23.40
2018,04,25,17,26,23.40
2018,04,25,17,27,23.40
2018,04,25,17,28,23.40
2018,04,25,17,29,23.30
2018,04,25,17,30,23.30
2018,04,25,17,31,23.30
2018,04,25,17,32,23.30